Hourly Data Report for April 17, 2017

TORONTO CITY
ONTARIO

43°40'00.000" N
79°24'00.000" W
112.50 m
6158355
71508
XTO

Download Data

Hourly Data (April 2017)
Hourly Data Report for April 17, 2017
TIME
LST
Temp Definition
°C
Dew Point Definition
°C
Rel Hum Definition
%
Precip. Amount Definition
mm

Wind Dir Definition
10's deg

Wind Spd Definition
km/h
Visibility Definition
km
Stn Press Definition
kPa
Hmdx Definition


Wind Chill Definition


Weather Definition


00:00 11.3 7.4 77 0.0 LegendMM LegendMM   100.00     LegendNANA
01:00 11.1 5.9 71 0.0 LegendMM LegendMM   100.04     LegendNANA
02:00 11.0 3.1 58 0.0 LegendMM LegendMM   100.04     LegendNANA
03:00 10.1 2.1 57 0.0 LegendMM LegendMM   100.09     LegendNANA
04:00 9.6 1.8 58 0.0 LegendMM LegendMM   100.12     LegendNANA
05:00 8.5 1.8 63 0.0 LegendMM LegendMM   100.21     LegendNANA
06:00 6.4 2.5 76 0.0 LegendMM LegendMM   100.37     LegendNANA
07:00 7.1 2.2 71 0.0 LegendMM LegendMM   100.48     LegendNANA
08:00 7.1 1.5 67 0.0 LegendMM LegendMM   100.51     LegendNANA
09:00 8.6 1.9 63 0.0 LegendMM LegendMM   100.59     LegendNANA
10:00 10.0 2.7 61 0.0 LegendMM LegendMM   100.65     LegendNANA
11:00 11.6 2.6 54 0.0 LegendMM LegendMM   100.69     LegendNANA
12:00 11.0 2.4 55 0.0 LegendMM LegendMM   100.70     LegendNANA
13:00 12.0 3.1 55 0.0 LegendMM LegendMM   100.70     LegendNANA
14:00 12.0 2.5 52 0.0 LegendMM LegendMM   100.69     LegendNANA
15:00 12.6 3.7 54 0.0 LegendMM LegendMM   100.71     LegendNANA
16:00 11.6 2.2 53 0.0 LegendMM LegendMM   100.73     LegendNANA
17:00 10.5 1.7 54 0.0 LegendMM LegendMM   100.80     LegendNANA
18:00 9.2 0.9 56 0.0 LegendMM LegendMM   100.87     LegendNANA
19:00 7.0 0.0 61 0.0 LegendMM LegendMM   100.98     LegendNANA
20:00 4.8 -0.9 67 0.0 LegendMM LegendMM   101.09     LegendNANA
21:00 3.8 -2.0 66 0.0 LegendMM LegendMM   101.16     LegendNANA
22:00 3.3 -2.2 67 0.0 LegendMM LegendMM   101.21     LegendNANA
23:00 2.9 -2.7 67 0.0 LegendMM LegendMM   101.28     LegendNANA

Notes on Data Quality.

Legend

  • E = Estimated
  • M = Missing
  • NA = Not Available*
  • [empty] = Indicates an unobserved value
Date modified: